[[{"header":{"parameterUnit":"m.s-1","parameterCategory":1,"la1":30.2991,"la2":30.254,"lo1":-89.0895,"lo2":-89.0444,"dy":0.0017,"dx":0.0017,"nx":28,"ny":28,"refTime":"2024-11-27T03:00:00:Z","depth":0,"parameterNumber":2,"parameterNumberName":"U-component_of_WINDS"},"data":[0,0,0,0,0,0,0,0,0,0,0,0,0,0,0,0,0,0,0,0,0,0,0,0,0,0,0,0,0,0,0,0,0,0,0,0,0,0,0,0,0,0,0,0,0,0,0,0,0,0,0,0,0,0,0,0,0,0,2.0499,2.0501,0,2.0712,2.0715,2.0717,2.0777,2.0776,2.0775,2.0774,2.0992,2.0999,2.1006,0,0,0,0,0,0,0,0,0,0,0,0,0,2.0147,2.0153,2.0499,2.0501,2.0504,2.0712,2.0715,2.0718,2.0778,2.0776,2.0775,2.0773,2.099,2.0998,2.1006,0,0,0,0,0,0,0,0,0,0,0,0,0,2.0324,2.0155,2.0498,2.0559,2.0567,2.0711,2.0715,2.0718,2.0778,2.0776,2.0774,2.0773,2.0987,2.0997,2.1008,2.1107,0,0,2.1039,2.1044,0,0,0,0,0,0,0,0,2.0313,2.0336,2.0547,2.0555,2.0564,2.0716,2.0671,2.0849,2.0778,2.0698,2.0774,2.0772,2.0902,2.0919,2.0963,2.1117,2.1127,2.104,2.1046,2.1051,2.1054,0,0,0,0,0,0,0,2.0301,2.0328,2.0583,2.055,2.0561,2.0577,2.06,2.0705,2.0807,2.0705,2.0709,2.0734,2.0906,2.0953,2.0969,2.113,2.104,2.1049,2.1056,2.106,2.1381,2.1383,0,0,0,0,0,0,2.0278,2.0317,2.0576,2.059,2.0432,2.0585,2.061,2.0669,2.0806,2.0825,2.0735,2.0736,2.0936,2.0956,2.0977,2.1104,2.1051,2.1061,2.1067,2.1378,2.1381,2.1384,0,0,0,0,0,0,2.027,2.0301,2.0568,2.0455,2.049,2.0592,2.0658,2.0674,2.0721,2.0829,2.0848,2.0764,2.0935,2.0962,2.1075,2.1113,2.1065,2.1075,2.1376,2.1379,2.1382,2.1359,0,0,0,0,0,0,2.026,2.0298,2.0335,2.0455,2.0496,2.0662,2.066,2.068,2.0739,2.0742,2.0861,2.0879,2.0936,2.1059,2.1085,2.1126,2.1083,2.1373,2.1377,2.1381,2.1357,2.1361,2.1365,0,0,0,0,0,2.0247,2.0319,2.0337,2.0368,2.0545,2.0664,2.0687,2.0751,2.0742,2.0781,2.0852,2.0876,2.1105,2.107,2.11,2.1144,2.1371,2.1376,2.1381,2.1355,2.136,2.1365,0,0,0,0,0,0,2.02,2.0336,2.0357,2.047,2.0555,2.0673,2.0725,2.0754,2.0843,2.0842,2.0918,2.0944,2.1053,2.111,2.107,2.125,2.1238,2.125,2.1208,2.1214,2.1218,2.1202,2.1091,0,0,0,0,0,2.0203,2.0287,2.0402,2.049,2.0532,2.0621,2.0675,2.0718,2.0809,2.0845,2.0923,2.1011,2.1103,2.1162,2.1252,2.1366,2.1394,2.1412,2.1416,2.1418,2.1427,2.1495,2.1504,2.1401,2.1401,2.1401,0,0,2.0209,2.0294,2.0342,2.0483,2.0554,2.0641,2.0651,2.0742,2.0807,2.0859,2.0971,2.1032,2.1135,2.1249,2.1304,2.1301,2.1463,2.1425,2.1426,2.1434,2.1501,2.1511,2.1519,2.1404,2.1404,2.1403,0,0,2.0266,2.0338,2.0421,2.0492,2.06,2.066,2.068,2.0796,2.0838,2.0952,2.0993,2.1073,2.1229,2.1303,2.136,2.1449,2.1475,2.1476,2.1497,2.1562,2.157,2.1578,2.1611,2.1622,2.1485,2.1485,2.1485,0,2.026,2.0392,2.046,2.055,2.0611,2.0663,2.0749,2.0816,2.0947,2.0989,2.0984,2.1184,2.1257,2.1391,2.1413,2.1458,2.1484,2.1462,2.1563,2.1572,2.158,2.1613,2.1625,2.1484,2.1484,2.1485,2.1485,0,2.0381,2.0472,2.0526,2.0653,2.0721,2.0808,2.0891,2.0952,2.099,2.1051,2.1168,2.1258,2.1369,2.1405,2.1441,2.1545,2.154,2.1548,2.1538,2.1588,2.162,2.1633,2.1484,2.1484,2.1484,2.1484,0,0,2.041,2.0576,2.0595,2.0655,2.078,2.0852,2.0943,2.1053,2.1105,2.1195,2.1275,2.1408,2.1418,2.1483,2.1529,2.1586,2.1654,2.1588,2.1592,2.1598,2.1776,2.1769,2.1782,2.1673,2.1675,2.1677,2.1768,0,2.0483,2.0646,2.0712,2.0846,2.0933,2.0985,2.1066,2.1152,2.1212,2.1295,2.1362,2.1456,2.1461,2.1501,2.156,2.1633,2.169,2.1627,2.1748,2.1752,2.172,2.1798,2.179,2.1871,2.1781,2.1783,2.1784,0,2.0588,2.0681,2.0823,2.094,2.0979,2.1049,2.1157,2.1236,2.1336,2.1376,2.1451,2.1495,2.1595,2.1579,2.1719,2.1675,2.1729,2.1772,2.1777,2.1791,2.177,2.1814,2.1898,2.191,2.1804,2.1803,2.1801,0,2.0597,2.0757,2.0864,2.0913,2.1052,2.1101,2.1162,2.126,2.1323,2.1418,2.146,2.1565,2.1622,2.1703,2.1775,2.1757,2.1909,2.1898,2.1946,2.1944,2.1975,2.1972,2.2068,2.2009,2.2009,2.2009,2.2009,0,2.067,2.0756,2.087,2.0935,2.1034,2.111,2.1205,2.127,2.1358,2.1438,2.1491,2.1565,2.1656,2.1743,2.18,2.1908,2.1934,2.197,2.1984,2.1965,2.1961,2.2001,2.1997,2.2012,2.2011,2.2011,2.201,0,2.0696,2.0775,2.0895,2.1019,2.1052,2.1119,2.1225,2.1292,2.1356,2.1458,2.1486,2.1587,2.1692,2.1773,2.1909,2.1948,2.2063,2.2078,2.2029,2.2037,2.208,2.2075,2.2206,2.2228,2.2153,2.2154,2.2154,0,2.0737,2.0804,2.0936,2.0993,2.1054,2.1146,2.1211,2.129,2.1356,2.1478,2.1531,2.164,2.1731,2.1898,2.1984,2.209,2.2108,2.2147,2.2124,2.2104,2.211,2.2105,2.2113,2.2149,2.215,2.215,2.215,0,2.0803,2.084,2.0931,2.1038,2.1115,2.1202,2.1291,2.1336,2.1432,2.1504,2.1613,2.1684,2.1825,2.1934,2.2049,2.2113,2.2148,2.2157,2.2174,2.2155,2.2124,2.2143,2.2038,2.2153,2.2153,2.2153,2.2153,2.2153,2.0838,2.0901,2.1005,2.1106,2.1182,2.1265,2.1334,2.1408,2.15,2.1621,2.1663,2.1776,2.1879,2.2038,2.2103,2.2194,2.2194,2.2218,2.2224,2.2229,2.2228,2.2111,2.2215,2.2215,2.2215,2.2215,2.2215,0,2.0907,2.0977,2.107,2.1193,2.1274,2.1301,2.1403,2.1468,2.1567,2.166,2.175,2.1877,2.1983,2.208,2.2191,2.2246,2.2265,2.2272,2.2269,2.2284,2.222,2.2195,2.2255,2.2255,2.2255,2.2255,2.2255,2.2255,2.0952,2.1062,2.1112,2.126,2.1331,2.1441,2.1497,2.1575,2.165,2.1789,2.1878,2.1941,2.2036,2.2156,2.2256,2.2282,2.2321,2.2324,2.2354,2.2293,2.2288,2.2283,2.2259,2.2332,2.2332,2.241,2.2411,2.2411]},{"header":{"parameterUnit":"m.s-1","parameterCategory":1,"la1":30.2991,"la2":30.254,"lo1":-89.0895,"lo2":-89.0444,"dy":0.0017,"dx":0.0017,"nx":28,"ny":28,"refTime":"2024-11-27T03:00:00:Z","depth":0,"parameterNumber":3,"parameterNumberName":"V-component_of_WINDS"},"data":[0,0,0,0,0,0,0,0,0,0,0,0,0,0,0,0,0,0,0,0,0,0,0,0,0,0,0,0,0,0,0,0,0,0,0,0,0,0,0,0,0,0,0,0,0,0,0,0,0,0,0,0,0,0,0,0,0,0,-2.9425,-2.9425,0,-2.9388,-2.9388,-2.9387,-2.94,-2.94,-2.9401,-2.9402,-2.9354,-2.9352,-2.935,0,0,0,0,0,0,0,0,0,0,0,0,0,-2.95,-2.9498,-2.9425,-2.9425,-2.9424,-2.9388,-2.9388,-2.9387,-2.9399,-2.94,-2.9401,-2.9402,-2.9355,-2.9352,-2.935,0,0,0,0,0,0,0,0,0,0,0,0,0,-2.9465,-2.9498,-2.9425,-2.9426,-2.9426,-2.9388,-2.9388,-2.9387,-2.9399,-2.94,-2.9402,-2.9403,-2.9355,-2.9352,-2.9349,-2.9305,0,0,-2.934,-2.9339,0,0,0,0,0,0,0,0,-2.9467,-2.9462,-2.9427,-2.9426,-2.9426,-2.94,-2.9396,-2.9359,-2.9399,-2.9409,-2.9402,-2.9403,-2.9368,-2.9364,-2.9354,-2.9303,-2.9301,-2.934,-2.9338,-2.9337,-2.9336,0,0,0,0,0,0,0,-2.947,-2.9464,-2.941,-2.9426,-2.9426,-2.9426,-2.9423,-2.9389,-2.9381,-2.9408,-2.9409,-2.9405,-2.9368,-2.9356,-2.9352,-2.93,-2.934,-2.9337,-2.9335,-2.9334,-2.9214,-2.9213,0,0,0,0,0,0,-2.9473,-2.9466,-2.9411,-2.9409,-2.945,-2.9424,-2.942,-2.9407,-2.9382,-2.938,-2.9404,-2.9406,-2.9361,-2.9356,-2.9351,-2.9299,-2.9337,-2.9334,-2.9332,-2.9215,-2.9214,-2.9212,0,0,0,0,0,0,-2.9475,-2.9468,-2.9413,-2.9438,-2.9431,-2.9422,-2.9406,-2.9405,-2.9395,-2.9379,-2.9377,-2.9395,-2.9362,-2.9355,-2.9318,-2.9298,-2.9332,-2.9329,-2.9217,-2.9215,-2.9213,-2.9195,0,0,0,0,0,0,-2.9477,-2.9469,-2.9453,-2.9438,-2.943,-2.9383,-2.9405,-2.9404,-2.939,-2.9392,-2.937,-2.9367,-2.9362,-2.9322,-2.9315,-2.9294,-2.9327,-2.9219,-2.9216,-2.9214,-2.9197,-2.9192,-2.9188,0,0,0,0,0,-2.948,-2.9447,-2.9453,-2.9446,-2.9411,-2.9381,-2.9377,-2.9375,-2.9389,-2.9372,-2.9363,-2.9368,-2.9301,-2.9318,-2.931,-2.9288,-2.922,-2.9217,-2.9214,-2.9199,-2.9193,-2.9188,0,0,0,0,0,0,-2.9457,-2.9445,-2.9451,-2.9413,-2.9399,-2.9384,-2.9363,-2.9369,-2.9347,-2.935,-2.9346,-2.934,-2.9303,-2.9291,-2.9311,-2.9245,-2.9262,-2.9257,-2.9254,-2.9248,-2.9244,-2.9247,-2.9324,0,0,0,0,0,-2.9448,-2.9428,-2.9418,-2.9385,-2.9378,-2.9372,-2.9359,-2.936,-2.9343,-2.9336,-2.9323,-2.9305,-2.928,-2.9264,-2.924,-2.9196,-2.9191,-2.9177,-2.9172,-2.9169,-2.9164,-2.9142,-2.9136,-2.9202,-2.9202,-2.9202,0,0,-2.9428,-2.9419,-2.9406,-2.938,-2.9369,-2.9347,-2.9366,-2.9341,-2.9324,-2.9331,-2.9296,-2.9287,-2.9266,-2.9226,-2.9207,-2.9215,-2.9145,-2.9165,-2.9162,-2.916,-2.9138,-2.9132,-2.9126,-2.92,-2.9201,-2.9201,0,0,-2.9381,-2.9372,-2.9346,-2.9335,-2.932,-2.9317,-2.931,-2.9295,-2.929,-2.9257,-2.9262,-2.924,-2.9198,-2.9183,-2.917,-2.9122,-2.9125,-2.9114,-2.909,-2.9069,-2.9063,-2.9059,-2.9042,-2.9036,-2.9109,-2.9109,-2.9109,0,-2.9357,-2.9326,-2.933,-2.9305,-2.9294,-2.9304,-2.9276,-2.9265,-2.9241,-2.9232,-2.9242,-2.9191,-2.9177,-2.9135,-2.9124,-2.9112,-2.9104,-2.9116,-2.9064,-2.906,-2.9055,-2.9039,-2.9033,-2.9108,-2.9108,-2.9108,-2.9108,0,-2.9299,-2.9277,-2.9257,-2.9238,-2.9224,-2.9198,-2.9196,-2.9181,-2.9183,-2.9178,-2.9144,-2.9129,-2.9104,-2.9093,-2.9093,-2.9052,-2.9057,-2.9066,-2.9083,-2.9048,-2.9033,-2.9027,-2.9106,-2.9107,-2.9107,-2.9107,0,0,-2.9233,-2.9221,-2.9213,-2.9206,-2.9191,-2.9173,-2.9147,-2.9126,-2.9114,-2.9097,-2.9075,-2.9041,-2.905,-2.9035,-2.9034,-2.9015,-2.898,-2.9027,-2.9026,-2.9019,-2.8933,-2.8927,-2.892,-2.8983,-2.8982,-2.8981,-2.8936,0,-2.9186,-2.9144,-2.9147,-2.9107,-2.9087,-2.9098,-2.9075,-2.9063,-2.9058,-2.9039,-2.9033,-2.9009,-2.9023,-2.9015,-2.8996,-2.8988,-2.8962,-2.8991,-2.896,-2.8959,-2.8966,-2.8912,-2.8904,-2.8863,-2.893,-2.8929,-2.8928,0,-2.9124,-2.911,-2.9069,-2.906,-2.9052,-2.9032,-2.9014,-2.8996,-2.8982,-2.898,-2.8967,-2.897,-2.8942,-2.8961,-2.8923,-2.8943,-2.8931,-2.8925,-2.8923,-2.892,-2.8941,-2.8907,-2.8849,-2.8843,-2.8918,-2.8919,-2.892,0,-2.9081,-2.9052,-2.9024,-2.9018,-2.9006,-2.8992,-2.8986,-2.8974,-2.8962,-2.8946,-2.8938,-2.8917,-2.8906,-2.8889,-2.8886,-2.89,-2.8848,-2.8867,-2.8845,-2.8845,-2.8832,-2.8833,-2.8772,-2.8825,-2.8825,-2.8825,-2.8825,0,-2.9027,-2.9001,-2.9006,-2.8988,-2.896,-2.8964,-2.8935,-2.893,-2.892,-2.8901,-2.8908,-2.8889,-2.8887,-2.8868,-2.8865,-2.8834,-2.8829,-2.8825,-2.8825,-2.8825,-2.8825,-2.8816,-2.8819,-2.8823,-2.8824,-2.8824,-2.8824,0,-2.8974,-2.8976,-2.8947,-2.894,-2.8938,-2.8917,-2.8911,-2.8894,-2.8892,-2.8867,-2.8862,-2.8857,-2.8835,-2.8831,-2.8803,-2.8802,-2.8766,-2.8768,-2.8771,-2.8772,-2.875,-2.8753,-2.868,-2.8671,-2.8731,-2.873,-2.873,0,-2.894,-2.8921,-2.8914,-2.8903,-2.8898,-2.888,-2.8869,-2.8873,-2.8861,-2.8846,-2.8831,-2.881,-2.8794,-2.8758,-2.875,-2.873,-2.8732,-2.8708,-2.8728,-2.873,-2.8732,-2.8733,-2.8731,-2.8703,-2.8703,-2.8702,-2.8702,0,-2.8878,-2.8881,-2.8867,-2.8853,-2.8841,-2.883,-2.8819,-2.8809,-2.8812,-2.8798,-2.8777,-2.8765,-2.874,-2.8719,-2.87,-2.8691,-2.8697,-2.8696,-2.869,-2.8689,-2.8693,-2.8691,-2.8761,-2.8697,-2.8698,-2.8698,-2.8698,-2.8698,-2.8833,-2.8818,-2.8812,-2.8796,-2.8789,-2.878,-2.8765,-2.8763,-2.8747,-2.8729,-2.8731,-2.8709,-2.8697,-2.8673,-2.8663,-2.8645,-2.8652,-2.8643,-2.8641,-2.8638,-2.8637,-2.8697,-2.8641,-2.8641,-2.8641,-2.8641,-2.8641,0,-2.8772,-2.877,-2.8756,-2.8743,-2.8731,-2.8741,-2.873,-2.8719,-2.87,-2.8691,-2.8676,-2.8653,-2.8634,-2.8627,-2.8609,-2.8595,-2.8597,-2.859,-2.8591,-2.8589,-2.8631,-2.8639,-2.8589,-2.8589,-2.8589,-2.8589,-2.8589,-2.8589,-2.8739,-2.8715,-2.8717,-2.8689,-2.8686,-2.8667,-2.866,-2.8652,-2.8645,-2.862,-2.8606,-2.8603,-2.8595,-2.8576,-2.8559,-2.8557,-2.855,-2.8542,-2.8541,-2.858,-2.8586,-2.8591,-2.8598,-2.854,-2.854,-2.8501,-2.85,-2.85]}]]